TIME,DELAY(SENSOR),PRES,T(CTD),SAL,OXYGEN,RAWTEMP,T(OPTODE),TCPHASE,TURBIDITY,TURBIDITY_GAIN,FLUOR,BETA,CDOM,CSC,CHECK
1350309439,8893,943.3099975585938000,6.5050001144409180,35.0693016052246100,234.8632965087890600,673.6948852539062000,6.4970822334289550,36.7680091857910160,15,3,50,89,64,15661,20409
1350309556,8893,931.9400024414062000,6.6421999931335450,35.0702018737793000,229.1475982666015600,670.0565185546875000,6.6179428100585940,36.9986000061035160,16,3,50,88,63,15666,53633
1350309670,8893,921.1699829101562000,6.7987999916076660,35.0742988586425800,223.4542999267578000,665.0535278320312000,6.7838749885559080,37.2103309631347660,15,3,50,88,63,15665,47688
1350309784,8893,910.4400024414062000,6.9591999053955080,35.0807991027832000,218.8368072509765600,660.3231811523438000,6.9404888153076170,37.3763084411621100,16,3,50,91,64,15663,12785
1350309910,8892,898.7100219726562000,7.0802001953125000,35.0854988098144500,215.0476989746093800,656.8505859375000000,7.0553002357482910,37.5241813659668000,16,3,50,89,64,15664,31213
1350310026,8892,887.9099731445312000,7.2150998115539550,35.0910987854003900,209.8780059814453000,652.3798828125000000,7.2028999328613280,37.7366600036621100,15,3,52,91,64,15667,45986
1350310142,8893,877.4699707031250000,7.4510998725891110,35.0985984802246100,203.6739959716797000,644.8698730468750000,7.4503331184387210,37.9643516540527340,16,3,50,91,64,15666,57070
1350310270,8892,866.2500000000000000,7.6679000854492190,35.1041984558105500,196.2169036865234400,638.4793090820312000,7.6603808403015140,38.3009605407714840,15,3,50,96,65,15659,5992
1350310398,8894,855.0599975585938000,8.0171003341674800,35.1119995117187500,187.4772033691406200,628.2139892578125000,7.9968409538269040,38.6695899963378900,16,3,51,98,63,15654,63271
1350310526,8892,844.2100219726562000,8.2114000320434570,35.1174011230468750,179.4219055175781200,622.2321166992188000,8.1923789978027340,39.0947303771972660,15,3,50,98,63,15653,22525
1350310654,8894,833.6099853515625000,8.3858003616333000,35.1290016174316400,175.5195007324218800,616.7410888671875000,8.3715333938598630,39.2639007568359400,16,3,51,95,64,15660,20201
1350310794,8892,822.4699707031250000,8.7069997787475590,35.1652984619140600,174.4707031250000000,606.7163696289062000,8.6977958679199220,39.1601600646972660,15,3,50,87,64,15674,58243
1350310954,8893,809.1199951171875000,8.9707002639770500,35.1831016540527340,171.3323059082031200,598.7849731445312000,8.9552001953125000,39.2419281005859400,16,3,50,88,64,15677,43494
1350311070,8893,798.2999877929688000,9.1157999038696290,35.1974983215332000,169.4588928222656200,593.9108276367188000,9.1130733489990230,39.2896690368652340,16,3,50,87,63,15677,56076
1350311198,8893,787.5300292968750000,9.3657999038696290,35.1994018554687500,163.5742950439453000,586.2700805664062000,9.3600845336914060,39.5852088928222660,16,3,51,94,62,15664,30940
1350311338,8892,777.0900268554688000,9.6937999725341800,35.2386016845703100,161.1914978027343800,574.7811279296875000,9.7304363250732420,39.5672416687011700,16,3,50,90,64,15670,37696
1350311487,8892,764.3099975585938000,10.2888002395629880,35.3083992004394500,165.1217041015625000,557.7324829101562000,10.2777395248413090,38.9861793518066400,15,3,51,92,63,15664,44357
1350311603,8892,752.2000122070312000,10.3177995681762700,35.2986984252929700,157.2330017089843800,556.5369262695312000,10.3160200119018550,39.5583992004394500,16,3,51,94,62,15660,414
1350311714,8891,739.9699707031250000,10.5367002487182620,35.3226013183593750,156.4311981201172000,549.8989257812500000,10.5283403396606450,39.5089988708496100,16,3,50,91,62,15664,21229
1350311843,8893,727.5499877929688000,10.6843996047973630,35.3447990417480500,157.2698974609375000,544.9713134765625000,10.6857099533081050,39.3628616333007800,15,3,50,90,64,15666,53575
1350311990,8892,716.5900268554688000,11.0270004272460940,35.3936004638671900,160.4438018798828000,534.3619995117188000,11.0238103866577150,38.9447593688964840,15,3,50,88,62,15674,39960
1350312135,8892,704.7199707031250000,11.4098997116088870,35.4485015869140600,164.8750000000000000,522.2135009765625000,11.4098196029663090,38.4154815673828100,16,3,50,86,62,15676,48601
1350312251,8892,693.7700195312500000,11.6372003555297850,35.4754981994628900,164.4203033447265600,515.0136718750000000,11.6380395889282230,38.3306999206543000,15,3,50,86,62,15674,6484
1350312367,8892,683.5300292968750000,11.9528999328613280,35.5269012451171900,169.0659942626953000,505.1477050781250000,11.9501104354858400,37.8329582214355500,16,3,50,84,60,15678,13712
1350312507,8892,672.4099731445312000,12.3716001510620120,35.5884017944335940,176.9799957275390600,491.8792114257812500,12.3686599731445310,37.0654792785644500,16,3,50,84,62,15682,34806
1350312655,8893,660.4099731445312000,12.6592998504638670,35.6300010681152340,180.5946044921875000,482.0593872070312500,12.6776103973388670,36.6648292541503900,15,3,50,84,60,15682,8713
1350312783,8892,648.4899902343750000,12.8663997650146480,35.6595993041992200,182.6452026367187500,475.7815856933594000,12.8747701644897460,36.4295616149902340,15,3,50,84,62,15680,65332
1350312899,8892,637.3699951171875000,13.1033000946044920,35.6885986328125000,178.9232025146484400,468.2659912109375000,13.1104602813720700,36.5599517822265600,16,3,50,86,60,15680,20073
1350313015,8892,625.7100219726562000,13.3285999298095700,35.7237014770507800,179.8668060302734400,460.9726867675781000,13.3388204574584960,36.3823394775390600,16,3,50,84,60,15679,46429
1350313138,8894,613.4500122070312000,13.5305995941162110,35.7551994323730500,181.9687957763672000,454.6991882324219000,13.5349903106689450,36.1450691223144500,16,3,50,84,60,15679,16413
1350313259,8891,602.4899902343750000,13.7749996185302730,35.7921981811523440,183.9293060302734400,446.8219909667969000,13.7809600830078120,35.8947792053222660,16,3,50,84,58,15682,8940
1350313387,8892,591.3499755859375000,14.0718002319335940,35.8456993103027340,194.8876953125000000,437.3778991699219000,14.0753698348999020,35.0594482421875000,15,3,50,84,58,15680,63788
1350313515,8891,580.6099853515625000,14.2362003326416020,35.8740997314453100,203.4358978271484400,431.9642028808594000,14.2439098358154300,34.4693908691406250,15,3,50,84,58,15676,53061
1350313655,8891,569.4400024414062000,14.4342002868652340,35.9065017700195300,207.0892944335937500,425.6860046386719000,14.4391603469848630,34.1660003662109400,16,3,50,85,58,15677,44649
1350313811,8892,556.2500000000000000,14.6877002716064450,35.9480018615722660,207.9382019042968800,416.9989013671875000,14.7089796066284180,33.9892311096191400,15,3,50,84,58,15676,3331
1350313927,8893,545.0300292968750000,14.8982000350952150,35.9814987182617200,207.8672027587890600,410.7261962890625000,14.9035701751708980,33.9007606506347660,15,3,50,84,58,15678,11458
1350314043,8891,533.8800048828125000,15.0741996765136720,36.0111007690429700,204.3352966308593800,404.9612121582031000,15.0822296142578120,34.0167999267578100,16,3,50,84,58,15676,40353
1350314159,8892,522.8800048828125000,15.1897001266479500,36.0326004028320300,205.1799011230468800,400.9986877441406000,15.2049398422241210,33.9103202819824200,16,3,50,84,58,15677,37417
1350314275,8893,511.5299987792969000,15.3676004409790040,36.0632019042968750,204.1600952148437500,393.9804077148437500,15.4221000671386720,33.8657684326171900,15,3,50,84,57,15674,5860
1350314391,8894,500.3999938964844000,15.6092996597290040,36.1041984558105500,205.8038024902343800,387.8150939941406000,15.6126899719238280,33.6827087402343750,15,3,50,84,58,15670,36065
1350314519,8893,489.0700073242187500,15.8120002746582030,36.1394996643066400,208.6804046630859400,380.8580932617187500,15.8275499343872070,33.4207305908203100,16,3,50,84,56,15685,24953
1350314633,8894,478.6499938964844000,16.0301990509033200,36.1792984008789060,216.7805023193359400,373.9132080078125000,16.0418300628662100,32.8808708190918000,16,3,50,84,57,15682,24180
1350314761,8893,467.3900146484375000,16.2147998809814450,36.2117996215820300,219.9351959228515600,367.6155090332031000,16.2359790802001950,32.6256294250488300,15,3,50,85,56,15682,22995
1350314889,8894,457.1900024414062500,16.2789001464843750,36.2233009338378900,224.2812042236328000,365.9074096679687500,16.2886104583740230,32.3779716491699200,15,3,50,84,56,15707,61777
1350315036,8894,444.3999938964844000,16.5800991058349600,36.2780990600585940,225.1519927978515600,355.1014099121094000,16.6213302612304700,32.1826705932617200,15,3,50,83,54,15710,59474
1350315152,8894,432.6400146484375000,16.7451000213623050,36.3100013732910160,226.3168029785156200,350.5065002441406000,16.7626895904541000,32.0603981018066400,16,3,50,83,55,15708,28667
1350315263,8894,421.6099853515625000,16.9197006225585940,36.3448982238769500,226.9228057861328000,344.2944030761719000,16.9536800384521500,31.9442691802978500,16,3,48,84,54,15708,60625
1350315396,8893,410.0000000000000000,17.1345005035400400,36.3855018615722660,228.6764984130859400,338.2636108398437500,17.1389808654785160,31.7744407653808600,16,3,48,84,54,15707,60767
1350315524,8894,399.1400146484375000,17.2236995697021500,36.4001998901367200,231.4089965820312500,335.2443847656250000,17.2317104339599600,31.5993003845214840,16,3,50,84,54,15708,60631
1350315590,8893,393.5299987792969000,17.2894992828369140,36.4108009338378900,232.8569946289062500,333.0101013183594000,17.3003101348876950,31.4986305236816400,16,3,50,82,53,15708,24632
1350315658,8892,387.7200012207031000,17.3756008148193360,36.4309997558593750,232.8719940185547000,330.1160888671875000,17.3891506195068360,31.4587001800537100,15,3,50,86,54,15708,11037
1350315736,8893,380.9700012207031000,17.4526004791259770,36.4471015930175800,233.0045928955078000,327.6119995117187500,17.4659996032714840,31.4182205200195300,16,3,50,84,54,15706,34138
1350315804,8893,375.0299987792969000,17.4734992980957030,36.4525985717773440,233.5126953125000000,327.0078125000000000,17.4845409393310550,31.3856697082519530,16,3,48,84,54,15708,2400
1350315870,8892,369.2699890136719000,17.5153007507324220,36.4597015380859400,233.9067993164062500,325.6919860839844000,17.5249099731445300,31.3491001129150400,16,3,48,84,54,15708,10958
1350315938,8893,363.3599853515625000,17.5655002593994140,36.4684982299804700,234.2698059082031200,324.0083923339844000,17.5765590667724600,31.3087596893310550,16,3,49,84,54,15708,2046
1350316004,8894,357.5799865722656000,17.5893993377685550,36.4739990234375000,234.6127014160156200,323.3268127441406000,17.5974693298339840,31.2833404541015620,16,3,48,86,54,15708,51744
1350316072,8893,351.6000061035156000,17.6560993194580080,36.4878997802734400,234.9866027832031200,321.1346130371094000,17.6647090911865230,31.2358207702636720,16,3,48,82,52,15708,10243
1350316138,8894,345.7500000000000000,17.6660003662109380,36.4886016845703100,235.1990051269531200,320.5250854492187500,17.6833992004394530,31.2178306579589840,16,3,48,84,52,15706,6358
1350316206,8893,339.7999877929687500,17.7635993957519530,36.5074005126953100,235.5514068603515600,317.4786987304687500,17.7768096923828120,31.1599502563476560,16,3,48,84,54,15706,49089
1350316272,8893,334.1000061035156000,17.7931995391845700,36.5141983032226560,236.0431060791015600,316.5007934570312500,17.8068008422851560,31.1235504150390620,16,3,48,83,52,15707,24855
1350316340,8894,328.2200012207031000,17.8250007629394530,36.5204010009765600,236.3074035644531200,315.5306091308594000,17.8365402221679700,31.0981006622314450,15,3,48,84,54,15706,35265
1350316406,8894,322.6199951171875000,17.8530006408691400,36.5228996276855500,236.4429016113281200,314.3320922851562500,17.8732795715332030,31.0756702423095700,16,3,49,86,53,15706,31984
1350316474,8892,316.8599853515625000,17.9092998504638670,36.5340995788574200,236.3854980468750000,312.6018066406250000,17.9263095855712900,31.0552406311035160,16,3,50,82,53,15708,30975
1350316552,8893,310.1900024414062500,17.9330005645751950,36.5388984680175800,236.6723937988281200,311.8541870117187500,17.9492206573486330,31.0318393707275400,15,3,48,82,54,15706,3379
1350316620,8892,304.2600097656250000,17.9687995910644530,36.5387992858886700,236.6842041015625000,310.7572937011719000,17.9828395843505860,31.0164604187011720,15,3,48,84,53,15705,25547
1350316686,8893,298.3299865722656000,18.0214004516601560,36.5466995239257800,236.1210937500000000,309.0791931152344000,18.0342597961425780,31.0206794738769530,15,3,49,84,54,15706,5656
1350316754,8894,292.1099853515625000,18.0408992767334000,36.5471000671386700,235.9376068115234400,308.3302001953125000,18.0572109222412100,31.0193691253662100,15,3,49,84,53,15707,32963
1350316820,8894,286.1499938964844000,18.0646991729736330,36.5505981445312500,235.9277954101562500,307.7851867675781000,18.0739002227783200,31.0126304626464840,15,3,49,85,53,15704,11190
1350316888,8894,279.7999877929687500,18.0634994506835940,36.5457000732421900,236.0997009277343800,307.8233947753906000,18.0727291107177730,31.0049400329589840,16,3,50,86,54,15698,33828
1350316954,8892,273.4500122070312500,18.0713005065917970,36.5411987304687500,236.3159027099609400,307.5069885253906000,18.0824298858642580,30.9905109405517580,15,3,48,83,52,15703,33591
1350317022,8894,267.0100097656250000,18.1219005584716800,36.5522994995117200,235.8917999267578000,305.9686889648437500,18.1295509338378900,30.9900703430175780,16,3,50,84,54,15704,28240
1350317088,8893,260.8800048828125000,18.1543998718261720,36.5589981079101560,235.4411926269531200,305.1099853515625000,18.1558609008789060,30.9998703002929700,16,3,48,85,53,15704,12669
1350317156,8893,254.8999938964843800,18.1770992279052730,36.5563011169433600,235.4732055664062500,303.9164123535156000,18.1924190521240230,30.9825096130371100,16,3,48,84,52,15701,15505
1350317222,8892,249.3399963378906200,18.2026004791259770,36.5595016479492200,235.1535034179687500,303.1651916503906000,18.2154293060302730,30.9875392913818360,16,3,48,84,51,15702,18782
1350317290,8892,243.7400054931640600,18.2416992187500000,36.5602989196777340,234.9037933349609400,302.0476074218750000,18.2496490478515620,30.9844093322753900,15,3,49,84,53,15702,34749
1350317368,8893,237.4499969482422000,18.2621002197265620,36.5556983947753900,235.1022949218750000,301.3837890625000000,18.2699794769287100,30.9662494659423830,16,3,50,85,52,15703,21872
1350317448,8892,231.1399993896484400,18.3041992187500000,36.5611991882324200,234.7187042236328000,299.8692016601562500,18.3163604736328120,30.9644203186035160,15,3,48,85,52,15702,57486
1350317514,8892,225.9100036621093800,18.3663005828857420,36.5718994140625000,233.8426971435547000,297.9818115234375000,18.3741493225097660,30.9810695648193360,16,3,48,84,52,15704,1751
1350317613,8892,217.4499969482422000,18.3845005035400400,36.5559997558593750,235.8462066650390600,297.0922851562500000,18.4013805389404300,30.8744697570800780,15,3,48,85,52,15702,59108
1350317698,8892,209.2799987792968800,18.5832996368408200,36.5942993164062500,232.1970977783203000,290.7228088378906000,18.5963592529296880,30.9632205963134770,16,3,50,84,52,15703,20830
1350317766,8893,202.3300018310547000,18.6390991210937500,36.5877990722656250,230.1515960693359400,289.5716857910156000,18.6315803527832030,31.0463008880615230,16,3,50,84,52,15704,63098
